Regional Weather Roundup
Issued by NWS Jackson, KY

Home | Current Version | Previous Version | Text Only | Print | Product List | Glossary Off
Versions: 1 2 3 4 5 6 7 8 9 10 11 12 13 14 15 16 17 18 19 20 21 22 23 24 25 26 27 28 29 30 31 32 33 34 35 36 37 38 39 40 41 42 43 44 45 46 47 48 49 50

000
ASUS43 KJKL 280305
RWRJKL

EAST KENTUCKY HOURLY WEATHER ROUNDUP
NATIONAL WEATHER SERVICE JACKSON KY
1000 PM EST SAT DEC 27 2014

NOTE: "FAIR" INDICATES FEW OR NO CLOUDS BELOW 12,000 FEET WITH
NO SIGNIFICANT WEATHER AND/OR OBSTRUCTIONS TO VISIBILITY.

* THESE REPORTS ARE NOT UNDER NWS QUALITY CONTROL AND MAY NOT
  REPORT WEATHER SUCH AS PRECIPITATION AND FOG.

KYZ079-080-083-085-087-088-110-112-115-119-120-280400
...EASTERN KENTUCKY...

CITY           SKY/WX    TMP DP  RH WIND       PRES   REMARKS
JACKSON        CLOUDY    48  41  76 VRB5      30.10F
LONDON         LGT RAIN  48  41  76 S5        30.11F
SOMERSET*      CLOUDY    46  45  93 CALM      30.12F
MONTICELLO*    CLOUDY    49  46  89 S6        30.12F
MIDDLESBORO*   LGT RAIN  46  45  98 CALM      30.15F
HARLAN APT*    CLOUDY    45  45 100 N6        30.13S
BLACK MTN*       N/A     46  25  42 S8          N/A
PIKEVILLE APT* CLOUDY    48  37  66 S3        30.11F
BIG SANDY*     CLOUDY    48  43  82 CALM      30.10F
MOREHEAD APT*  CLOUDY    52  41  66 CALM      30.08F
$$

KYZ035-036-041-042-044-050-067-078-099-280400
...CENTRAL KENTUCKY...

CITY           SKY/WX    TMP DP  RH WIND       PRES   REMARKS
MT STERLING*   CLOUDY    50  43  76 SW3       30.08F
FLEMING/MASON* CLOUDY    48  44  85 SW5       30.07S
DANVILLE*      CLOUDY    50  41  71 SW6       30.10S
RICHMOND*      CLOUDY    50  39  66 S10G23    30.08S
LEXINGTON      CLOUDY    47  44  90 SW5       30.09R
FRANKFORT      CLOUDY    47  45  93 SW5       30.08R FOG
$$

KYZ091>093-OHZ055-061-077-WVZ005-015-034-035-042-280400
...SOUTHERN OHIO/WEST VIRGINIA...

CITY           SKY/WX    TMP DP  RH WIND       PRES   REMARKS
COVINGTON      LGT RAIN  48  44  86 SW7       30.07R FOG
COLUMBUS       RAIN      47  45  93 SW8       30.04R FOG
DAYTON         LGT RAIN  47  45  93 SW8       30.06S FOG
WILMINGTON     LGT RAIN  46  44  93 SW12      30.04S FOG
HUNTINGTON     CLOUDY    54  36  50 S12G17    30.08F
CHARLESTON     CLOUDY    49  35  58 SE7       30.07F
PINEVILLE*     CLOUDY    49  44  83 MISG      30.17R
BECKLEY        CLOUDY    55  15  20 S5        30.12S
BLUEFIELD      CLOUDY    59  11  15 S3        30.13F
$$

VAZ002-007-008-TNZ017-027-036-066-071-280400
...SOUTHWEST VIRGINIA/EAST TENNESSEE...

CITY           SKY/WX    TMP DP  RH WIND       PRES   REMARKS
WISE*          CLOUDY    46  32  57 S5        30.14F
JONESVILLE*    CLOUDY    46  45  93 CALM      30.16F
ABINGDON*      CLOUDY    48  37  65 CALM      30.13F
BRISTOL        MOCLDY    45  39  79 CALM      30.15F
KNOXVILLE      CLOUDY    50  42  74 CALM      30.15S
OAK RIDGE      CLOUDY    50  41  71 CALM      30.16F
CROSSVILLE     HVY RAIN  49  42  77 S6        30.13F
NASHVILLE      CLOUDY    50  48  93 S6        30.11S
$$

...KEY TO REMARKS...
VSB - VISIBILITY IN MILES
WCI - WIND CHILL INDEX
HX  - HEAT INDEX

$$


USA.gov is the U.S. government's official web portal to all federal, state and local government web resources and services.